Year,Month,Day,Hour,Minute,Value (Times are PST for windgust in km/hr)
2009,03,13,00,00,0.00
2009,03,13,00,01,0.00
2009,03,13,00,02,0.00
2009,03,13,00,03,0.00
2009,03,13,00,04,0.00
2009,03,13,00,05,0.00
2009,03,13,00,06,0.00
2009,03,13,00,07,0.00
2009,03,13,00,08,0.00
2009,03,13,00,09,0.00
2009,03,13,00,10,0.00
2009,03,13,00,11,0.00
2009,03,13,00,12,0.00
2009,03,13,09,45,1.60
2009,03,13,09,46,0.00
2009,03,13,09,47,0.00
2009,03,13,09,48,0.00
2009,03,13,09,49,1.60
2009,03,13,09,50,1.60
2009,03,13,09,51,1.60
2009,03,13,09,52,1.60
2009,03,13,09,53,0.00
2009,03,13,09,54,1.60
2009,03,13,09,55,1.60
2009,03,13,09,56,1.60
2009,03,13,09,57,3.20
2009,03,13,09,58,3.20
2009,03,13,09,59,4.80
2009,03,13,10,00,4.80
2009,03,13,10,01,3.20
2009,03,13,10,02,1.60
2009,03,13,10,03,0.00
2009,03,13,10,04,0.00
2009,03,13,10,05,0.00
2009,03,13,10,06,0.00
2009,03,13,10,07,0.00
2009,03,13,10,08,0.00
2009,03,13,10,09,1.60
2009,03,13,10,10,1.60
2009,03,13,10,11,1.60
2009,03,13,10,12,1.60
2009,03,13,10,13,3.20
2009,03,13,10,14,1.60
2009,03,13,10,15,4.80
2009,03,13,10,16,3.20
2009,03,13,10,17,1.60
2009,03,13,10,18,0.00
2009,03,13,10,19,0.00
2009,03,13,10,20,1.60
2009,03,13,10,21,0.00
2009,03,13,10,22,1.60
2009,03,13,10,23,4.80
2009,03,13,10,24,3.20
2009,03,13,10,25,6.40
2009,03,13,10,26,6.40
2009,03,13,10,27,6.40
2009,03,13,10,28,6.40
2009,03,13,10,29,6.40
2009,03,13,10,30,3.20
2009,03,13,10,31,4.80
2009,03,13,10,32,4.80
2009,03,13,10,33,1.60
2009,03,13,10,34,0.00
2009,03,13,10,35,3.20
2009,03,13,10,36,1.60
2009,03,13,10,37,6.40
2009,03,13,10,38,6.40
2009,03,13,10,39,3.20
2009,03,13,10,40,3.20
2009,03,13,10,41,4.80
2009,03,13,10,42,3.20
2009,03,13,10,43,4.80
2009,03,13,10,44,8.10
2009,03,13,10,45,6.40
2009,03,13,10,46,6.40
2009,03,13,10,47,8.10
2009,03,13,10,48,4.80
2009,03,13,10,49,8.10
2009,03,13,10,50,6.40
2009,03,13,10,51,1.60
2009,03,13,10,52,0.00
2009,03,13,10,53,3.20
2009,03,13,10,54,3.20
2009,03,13,10,55,3.20
2009,03,13,10,56,8.10
2009,03,13,10,57,9.60
2009,03,13,10,58,8.10
2009,03,13,10,59,6.40
2009,03,13,11,00,6.40
2009,03,13,11,01,8.10
2009,03,13,11,02,9.60
2009,03,13,11,03,8.10
2009,03,13,11,04,9.60
2009,03,13,11,05,6.40
2009,03,13,11,06,8.10
2009,03,13,11,07,8.10
2009,03,13,11,08,11.30
2009,03,13,11,09,4.80
2009,03,13,11,10,9.60
2009,03,13,11,11,6.40
2009,03,13,11,12,3.20
2009,03,13,11,13,6.40
2009,03,13,11,14,6.40
2009,03,13,11,15,6.40
2009,03,13,11,16,6.40
2009,03,13,11,17,6.40
2009,03,13,11,18,6.40
2009,03,13,11,19,11.30
2009,03,13,11,20,9.60
2009,03,13,11,21,9.60
2009,03,13,11,22,8.10
2009,03,13,11,23,8.10
2009,03,13,11,24,8.10
2009,03,13,11,25,11.30
2009,03,13,11,26,9.60
2009,03,13,11,27,9.60
2009,03,13,11,28,8.10
2009,03,13,11,29,8.10
2009,03,13,11,30,9.60
2009,03,13,11,31,9.60
2009,03,13,11,32,9.60
2009,03,13,11,33,9.60
2009,03,13,11,34,9.60
2009,03,13,11,35,14.50
2009,03,13,11,36,12.90
2009,03,13,11,37,8.10
2009,03,13,11,38,3.20
2009,03,13,11,39,6.40
2009,03,13,11,40,6.40
2009,03,13,11,41,8.10
2009,03,13,11,42,4.80
2009,03,13,11,43,0.00
2009,03,13,11,44,6.40
2009,03,13,11,45,11.30
2009,03,13,11,46,8.10
2009,03,13,11,47,1.60
2009,03,13,11,48,11.30
2009,03,13,11,49,14.50
2009,03,13,11,50,9.60
2009,03,13,11,51,9.60
2009,03,13,11,52,12.90
2009,03,13,11,53,9.60
2009,03,13,11,54,9.60
2009,03,13,11,55,3.20
2009,03,13,11,56,3.20
2009,03,13,11,57,1.60
2009,03,13,11,58,1.60
2009,03,13,11,59,8.10
2009,03,13,12,00,11.30
2009,03,13,12,01,11.30
2009,03,13,12,02,6.40
2009,03,13,12,03,9.60
2009,03,13,12,04,9.60
2009,03,13,12,05,4.80
2009,03,13,12,06,3.20
2009,03,13,12,07,3.20
2009,03,13,12,08,4.80
2009,03,13,12,09,6.40
2009,03,13,12,10,1.60
2009,03,13,12,11,8.10
2009,03,13,12,12,8.10
2009,03,13,12,13,6.40
2009,03,13,12,14,6.40
2009,03,13,12,15,6.40
2009,03,13,12,16,4.80
2009,03,13,12,17,11.30
2009,03,13,12,18,14.50
2009,03,13,12,19,4.80
2009,03,13,12,20,6.40
2009,03,13,12,21,14.50
2009,03,13,12,22,14.50
2009,03,13,12,23,9.60
2009,03,13,12,24,4.80
2009,03,13,12,25,4.80
2009,03,13,12,26,1.60
2009,03,13,12,27,9.60
2009,03,13,12,28,4.80
2009,03,13,12,29,0.00
2009,03,13,12,30,4.80
2009,03,13,12,31,6.40
2009,03,13,12,32,3.20
2009,03,13,12,33,8.10
2009,03,13,12,34,6.40
2009,03,13,12,35,3.20
2009,03,13,12,36,4.80
2009,03,13,12,37,1.60
2009,03,13,12,38,8.10
2009,03,13,12,39,6.40
2009,03,13,12,40,6.40
2009,03,13,12,41,9.60
2009,03,13,12,42,9.60
2009,03,13,12,43,3.20
2009,03,13,12,44,4.80
2009,03,13,12,45,8.10
2009,03,13,12,46,8.10
2009,03,13,12,47,3.20
2009,03,13,12,48,6.40
2009,03,13,12,49,8.10
2009,03,13,12,50,4.80
2009,03,13,12,51,8.10
2009,03,13,12,52,4.80
2009,03,13,12,53,6.40
2009,03,13,12,54,6.40
2009,03,13,12,55,6.40
2009,03,13,12,56,4.80
2009,03,13,12,57,9.60
2009,03,13,12,58,6.40
2009,03,13,12,59,8.10
2009,03,13,13,00,3.20
2009,03,13,13,01,6.40
2009,03,13,13,02,6.40
2009,03,13,13,03,6.40
2009,03,13,13,04,4.80
2009,03,13,13,05,3.20
2009,03,13,13,06,9.60
2009,03,13,13,07,9.60
2009,03,13,13,08,8.10
2009,03,13,13,09,9.60
2009,03,13,13,10,8.10
2009,03,13,13,11,3.20
2009,03,13,13,12,1.60
2009,03,13,13,13,8.10
2009,03,13,13,14,4.80
2009,03,13,13,15,6.40
2009,03,13,13,16,8.10
2009,03,13,13,17,11.30
2009,03,13,13,18,16.10
2009,03,13,13,19,17.70
2009,03,13,13,20,12.90
2009,03,13,13,21,6.40
2009,03,13,13,22,1.60
2009,03,13,13,23,8.10
2009,03,13,13,24,8.10
2009,03,13,13,25,9.60
2009,03,13,13,26,6.40
2009,03,13,13,27,9.60
2009,03,13,13,28,11.30
2009,03,13,13,29,16.10
2009,03,13,13,30,11.30
2009,03,13,13,31,11.30
2009,03,13,13,32,14.50
2009,03,13,13,33,14.50
2009,03,13,13,34,9.60
2009,03,13,13,35,6.40
2009,03,13,13,36,9.60
2009,03,13,13,37,4.80
2009,03,13,13,38,8.10
2009,03,13,13,39,8.10
2009,03,13,13,40,3.20
2009,03,13,13,41,1.60
2009,03,13,13,42,8.10
2009,03,13,13,43,9.60
2009,03,13,13,44,9.60
2009,03,13,13,45,9.60
2009,03,13,13,46,16.10
2009,03,13,13,47,14.50
2009,03,13,13,48,9.60
2009,03,13,13,49,8.10
2009,03,13,13,50,4.80
2009,03,13,13,51,6.40
2009,03,13,13,52,11.30
2009,03,13,13,53,8.10
2009,03,13,13,54,8.10
2009,03,13,13,55,4.80
2009,03,13,13,56,1.60
2009,03,13,13,57,3.20
2009,03,13,13,58,6.40
2009,03,13,13,59,6.40
2009,03,13,14,00,6.40
2009,03,13,14,01,3.20
2009,03,13,14,02,6.40
2009,03,13,14,03,6.40
2009,03,13,14,04,8.10
2009,03,13,14,05,6.40
2009,03,13,14,06,9.60
2009,03,13,14,07,8.10
2009,03,13,14,08,8.10
2009,03,13,14,09,4.80
2009,03,13,14,10,3.20
2009,03,13,14,11,1.60
2009,03,13,14,12,1.60
2009,03,13,14,13,14.50
2009,03,13,14,14,11.30
2009,03,13,14,15,9.60
2009,03,13,14,16,9.60
2009,03,13,14,17,9.60
2009,03,13,14,18,8.10
2009,03,13,14,19,12.90
2009,03,13,14,20,9.60
2009,03,13,14,21,4.80
2009,03,13,14,22,6.40
2009,03,13,14,23,8.10
2009,03,13,14,24,6.40
2009,03,13,14,25,3.20
2009,03,13,14,26,3.20
2009,03,13,14,27,4.80
2009,03,13,14,28,9.60
2009,03,13,14,29,4.80
2009,03,13,14,30,3.20
2009,03,13,14,31,4.80
2009,03,13,14,32,6.40
2009,03,13,14,33,1.60
2009,03,13,14,34,4.80
2009,03,13,14,35,6.40
2009,03,13,14,36,1.60
2009,03,13,14,37,4.80
2009,03,13,14,38,1.60
2009,03,13,14,39,3.20
2009,03,13,14,40,3.20
2009,03,13,14,41,1.60
2009,03,13,14,42,4.80
2009,03,13,14,43,8.10
2009,03,13,14,44,9.60
2009,03,13,14,45,6.40
2009,03,13,14,46,6.40
2009,03,13,14,47,11.30
2009,03,13,14,48,9.60
2009,03,13,14,49,6.40
2009,03,13,14,50,4.80
2009,03,13,14,51,8.10
2009,03,13,14,52,8.10
2009,03,13,14,53,9.60
2009,03,13,14,54,11.30
2009,03,13,14,55,6.40
2009,03,13,14,56,6.40
2009,03,13,14,57,6.40
2009,03,13,14,58,11.30
2009,03,13,14,59,6.40
2009,03,13,15,00,3.20
2009,03,13,15,01,4.80
2009,03,13,15,02,1.60
2009,03,13,15,03,3.20
2009,03,13,15,04,9.60
2009,03,13,15,05,9.60
2009,03,13,15,06,4.80
2009,03,13,15,07,6.40
2009,03,13,15,08,6.40
2009,03,13,15,09,6.40
2009,03,13,15,10,4.80
2009,03,13,15,11,3.20
2009,03,13,15,12,4.80
2009,03,13,15,13,1.60
2009,03,13,15,14,3.20
2009,03,13,15,15,6.40
2009,03,13,15,16,8.10
2009,03,13,15,17,4.80
2009,03,13,15,18,0.00
2009,03,13,15,19,4.80
2009,03,13,15,20,1.60
2009,03,13,15,21,4.80
2009,03,13,15,22,4.80
2009,03,13,15,23,3.20
2009,03,13,15,24,6.40
2009,03,13,15,25,8.10
2009,03,13,15,26,4.80
2009,03,13,15,27,3.20
2009,03,13,15,28,1.60
2009,03,13,15,29,1.60
2009,03,13,15,30,0.00
2009,03,13,15,31,8.10
2009,03,13,15,32,6.40
2009,03,13,15,33,9.60
2009,03,13,15,34,6.40
2009,03,13,15,35,9.60
2009,03,13,15,36,8.10
2009,03,13,15,37,4.80
2009,03,13,15,38,3.20
2009,03,13,15,39,3.20
2009,03,13,15,40,4.80
2009,03,13,15,41,3.20
2009,03,13,15,42,4.80
2009,03,13,15,43,4.80
2009,03,13,15,44,3.20
2009,03,13,15,45,8.10
2009,03,13,15,46,9.60
2009,03,13,15,47,6.40
2009,03,13,15,48,8.10
2009,03,13,15,49,6.40
2009,03,13,15,50,9.60
2009,03,13,15,51,9.60
2009,03,13,15,52,6.40
2009,03,13,15,53,6.40
2009,03,13,15,54,4.80
2009,03,13,15,55,4.80
2009,03,13,15,56,6.40
2009,03,13,15,57,8.10
2009,03,13,15,58,8.10
2009,03,13,15,59,8.10
2009,03,13,16,00,6.40
2009,03,13,16,01,8.10
2009,03,13,16,02,8.10
2009,03,13,16,03,4.80
2009,03,13,16,04,3.20
2009,03,13,16,05,3.20
2009,03,13,16,06,3.20
2009,03,13,16,07,1.60
2009,03,13,16,08,0.00
2009,03,13,16,09,0.00
2009,03,13,16,10,1.60
2009,03,13,16,11,3.20
2009,03,13,16,12,3.20
2009,03,13,16,13,0.00
2009,03,13,16,14,0.00
2009,03,13,16,15,3.20
2009,03,13,16,16,0.00
2009,03,13,16,17,4.80
2009,03,13,16,18,4.80
2009,03,13,16,19,3.20
2009,03,13,16,20,0.00
2009,03,13,16,21,0.00
2009,03,13,16,22,0.00
2009,03,13,16,23,0.00
2009,03,13,16,24,0.00
2009,03,13,16,25,1.60
2009,03,13,16,26,3.20
2009,03,13,16,27,0.00
2009,03,13,16,28,1.60
2009,03,13,16,29,1.60
2009,03,13,16,30,1.60
2009,03,13,16,31,3.20
2009,03,13,16,32,1.60
2009,03,13,16,33,1.60
2009,03,13,16,34,1.60
2009,03,13,16,35,0.00
2009,03,13,16,36,0.00
2009,03,13,16,37,1.60
2009,03,13,16,38,1.60
2009,03,13,16,39,1.60
2009,03,13,16,40,1.60
2009,03,13,16,41,3.20
2009,03,13,16,42,0.00
2009,03,13,16,43,0.00
2009,03,13,16,44,0.00
2009,03,13,16,45,0.00
2009,03,13,16,46,0.00
2009,03,13,16,47,1.60
2009,03,13,16,48,1.60
2009,03,13,16,49,1.60
2009,03,13,16,50,1.60
2009,03,13,16,51,0.00
2009,03,13,16,52,1.60
2009,03,13,16,53,0.00
2009,03,13,16,54,0.00
2009,03,13,16,55,0.00
2009,03,13,16,56,0.00
2009,03,13,16,57,0.00
2009,03,13,16,58,1.60
2009,03,13,16,59,0.00
2009,03,13,17,00,0.00
2009,03,13,17,01,0.00
2009,03,13,17,02,1.60
2009,03,13,17,03,1.60
2009,03,13,17,04,1.60
2009,03,13,17,05,1.60
2009,03,13,17,06,0.00
2009,03,13,17,07,0.00
2009,03,13,17,08,0.00
2009,03,13,17,09,0.00
2009,03,13,17,10,0.00
2009,03,13,17,11,0.00
2009,03,13,17,12,0.00
2009,03,13,17,13,0.00
2009,03,13,17,14,0.00
2009,03,13,17,15,9.60
2009,03,13,17,16,11.30
2009,03,13,17,17,8.10
2009,03,13,17,18,6.40
2009,03,13,17,19,6.40
2009,03,13,17,20,4.80
2009,03,13,17,21,3.20
2009,03,13,17,22,6.40
2009,03,13,17,23,8.10
2009,03,13,17,24,9.60
2009,03,13,17,25,9.60
2009,03,13,17,26,16.10
2009,03,13,17,27,14.50
2009,03,13,17,28,9.60
2009,03,13,17,29,9.60
2009,03,13,17,30,6.40
2009,03,13,17,31,6.40
2009,03,13,17,32,6.40
2009,03,13,17,33,9.60
2009,03,13,17,34,9.60
2009,03,13,17,35,12.90
2009,03,13,17,36,8.10
2009,03,13,17,37,11.30
2009,03,13,17,38,9.60
2009,03,13,17,39,11.30
2009,03,13,17,40,16.10
2009,03,13,17,41,9.60
2009,03,13,17,42,8.10
2009,03,13,17,43,8.10
2009,03,13,17,44,6.40
2009,03,13,17,45,4.80
2009,03,13,17,46,4.80
2009,03,13,17,47,11.30
2009,03,13,17,48,8.10
2009,03,13,17,49,4.80
2009,03,13,17,50,1.60
2009,03,13,17,51,1.60
2009,03,13,17,52,3.20
2009,03,13,17,53,6.40
2009,03,13,17,54,6.40
2009,03,13,17,55,1.60
2009,03,13,17,56,1.60
2009,03,13,17,57,1.60
2009,03,13,17,58,0.00
2009,03,13,17,59,4.80
2009,03,13,18,00,3.20
2009,03,13,18,01,6.40
2009,03,13,18,02,3.20
2009,03,13,18,03,0.00
2009,03,13,18,04,0.00
2009,03,13,18,05,0.00
2009,03,13,18,06,4.80
2009,03,13,18,07,11.30
2009,03,13,18,08,12.90
2009,03,13,18,09,9.60
2009,03,13,18,10,6.40
2009,03,13,18,11,9.60
2009,03,13,18,12,12.90
2009,03,13,18,13,9.60
2009,03,13,18,14,4.80
2009,03,13,18,15,8.10
2009,03,13,18,16,11.30
2009,03,13,18,17,8.10
2009,03,13,18,18,4.80
2009,03,13,18,19,8.10
2009,03,13,18,20,4.80
2009,03,13,18,21,9.60
2009,03,13,18,22,9.60
2009,03,13,18,23,4.80
2009,03,13,18,24,8.10
2009,03,13,18,25,4.80
2009,03,13,18,26,19.30
2009,03,13,18,27,8.10
2009,03,13,18,28,8.10
2009,03,13,18,29,6.40
2009,03,13,18,30,8.10
2009,03,13,18,31,11.30
2009,03,13,18,32,8.10
2009,03,13,18,33,8.10
2009,03,13,18,34,6.40
2009,03,13,18,35,3.20
2009,03,13,18,36,3.20
2009,03,13,18,37,4.80
2009,03,13,18,38,4.80
2009,03,13,18,39,6.40
2009,03,13,18,40,6.40
2009,03,13,18,41,9.60
2009,03,13,18,42,9.60
2009,03,13,18,43,8.10
2009,03,13,18,44,16.10
2009,03,13,18,45,22.50
2009,03,13,18,46,9.60
2009,03,13,18,47,16.10
2009,03,13,18,48,16.10
2009,03,13,18,49,14.50
2009,03,13,18,50,8.10
2009,03,13,18,51,16.10
2009,03,13,18,52,16.10
2009,03,13,18,53,11.30
2009,03,13,18,54,9.60
2009,03,13,18,55,6.40
2009,03,13,18,56,24.20
2009,03,13,18,57,16.10
2009,03,13,18,58,14.50
2009,03,13,18,59,8.10
2009,03,13,19,00,6.40
2009,03,13,19,01,16.10
2009,03,13,19,02,8.10
2009,03,13,19,03,11.30
2009,03,13,19,04,8.10
2009,03,13,19,05,9.60
2009,03,13,19,06,9.60
2009,03,13,19,07,3.20
2009,03,13,19,08,16.10
2009,03,13,19,09,14.50
2009,03,13,19,10,9.60
2009,03,13,19,11,9.60
2009,03,13,19,12,4.80
2009,03,13,19,13,4.80
2009,03,13,19,14,3.20
2009,03,13,19,15,1.60
2009,03,13,19,16,6.40
2009,03,13,19,17,19.30
2009,03,13,19,18,17.70
2009,03,13,19,19,11.30
2009,03,13,19,20,17.70
2009,03,13,19,21,17.70
2009,03,13,19,22,16.10
2009,03,13,19,23,16.10
2009,03,13,19,24,11.30
2009,03,13,19,25,11.30
2009,03,13,19,26,11.30
2009,03,13,19,27,8.10
2009,03,13,19,28,8.10
2009,03,13,19,29,9.60
2009,03,13,19,30,12.90
2009,03,13,19,31,11.30
2009,03,13,19,32,11.30
2009,03,13,19,33,9.60
2009,03,13,19,34,9.60
2009,03,13,19,35,11.30
2009,03,13,19,36,11.30
2009,03,13,19,37,11.30
2009,03,13,19,38,6.40
2009,03,13,19,39,6.40
2009,03,13,19,40,8.10
2009,03,13,19,41,6.40
2009,03,13,19,42,4.80
2009,03,13,19,43,3.20
2009,03,13,19,44,8.10
2009,03,13,19,45,4.80
2009,03,13,19,46,1.60
2009,03,13,19,47,3.20
2009,03,13,19,48,6.40
2009,03,13,19,49,4.80
2009,03,13,19,50,6.40
2009,03,13,19,51,3.20
2009,03,13,19,52,4.80
2009,03,13,19,53,3.20
2009,03,13,19,54,4.80
2009,03,13,19,55,8.10
2009,03,13,19,56,6.40
2009,03,13,19,57,1.60
2009,03,13,19,58,4.80
2009,03,13,19,59,4.80
2009,03,13,20,00,1.60
2009,03,13,20,01,0.00
2009,03,13,20,02,0.00
2009,03,13,20,03,1.60
2009,03,13,20,04,6.40
2009,03,13,20,05,4.80
2009,03,13,20,06,4.80
2009,03,13,20,07,6.40
2009,03,13,20,08,8.10
2009,03,13,20,09,3.20
2009,03,13,20,10,1.60
2009,03,13,20,11,1.60
2009,03,13,20,12,3.20
2009,03,13,20,13,4.80
2009,03,13,20,14,1.60
2009,03,13,20,15,4.80
2009,03,13,20,16,6.40
2009,03,13,20,17,4.80
2009,03,13,20,18,3.20
2009,03,13,20,19,1.60
2009,03,13,20,20,1.60
2009,03,13,20,21,1.60
2009,03,13,20,22,3.20
2009,03,13,20,23,3.20
2009,03,13,20,24,1.60
2009,03,13,20,25,0.00
2009,03,13,20,26,1.60
2009,03,13,20,27,1.60
2009,03,13,20,28,4.80
2009,03,13,20,29,8.10
2009,03,13,20,30,3.20
2009,03,13,20,31,0.00
2009,03,13,20,32,1.60
2009,03,13,20,33,4.80
2009,03,13,20,34,4.80
2009,03,13,20,35,3.20
2009,03,13,20,36,6.40
2009,03,13,20,37,4.80
2009,03,13,20,38,4.80
2009,03,13,20,39,8.10
2009,03,13,20,40,6.40
2009,03,13,20,41,4.80
2009,03,13,20,42,6.40
2009,03,13,20,43,4.80
2009,03,13,20,44,4.80
2009,03,13,20,45,1.60
2009,03,13,20,46,0.00
2009,03,13,20,47,4.80
2009,03,13,20,48,3.20
2009,03,13,20,49,3.20
2009,03,13,20,50,3.20
2009,03,13,20,51,3.20
2009,03,13,20,52,8.10
2009,03,13,20,53,4.80
2009,03,13,20,54,11.30
2009,03,13,20,55,9.60
2009,03,13,20,56,6.40
2009,03,13,20,57,8.10
2009,03,13,20,58,6.40
2009,03,13,20,59,4.80
2009,03,13,21,00,1.60
2009,03,13,21,01,6.40
2009,03,13,21,02,4.80
2009,03,13,21,03,4.80
2009,03,13,21,04,6.40
2009,03,13,21,05,6.40
2009,03,13,21,06,3.20
2009,03,13,21,07,4.80
2009,03,13,21,08,1.60
2009,03,13,21,09,4.80
2009,03,13,21,10,4.80
2009,03,13,21,11,4.80
2009,03,13,21,12,3.20
2009,03,13,21,13,1.60
2009,03,13,21,14,1.60
2009,03,13,21,15,6.40
2009,03,13,21,16,4.80
2009,03,13,21,17,3.20
2009,03,13,21,18,4.80
2009,03,13,21,19,1.60
2009,03,13,21,20,1.60
2009,03,13,21,21,1.60
2009,03,13,21,22,0.00
2009,03,13,21,23,1.60
2009,03,13,21,24,3.20
2009,03,13,21,25,3.20
2009,03,13,21,26,1.60
2009,03,13,21,27,0.00
2009,03,13,21,28,0.00
2009,03,13,21,29,0.00
2009,03,13,21,30,0.00
2009,03,13,21,31,1.60
2009,03,13,21,32,0.00
2009,03,13,21,33,0.00
2009,03,13,21,34,0.00
2009,03,13,21,35,1.60
2009,03,13,21,36,0.00
2009,03,13,21,37,1.60
2009,03,13,21,38,1.60
2009,03,13,21,39,0.00
2009,03,13,21,40,1.60
2009,03,13,21,41,0.00
2009,03,13,21,42,9.60
2009,03,13,21,43,8.10
2009,03,13,21,44,4.80
2009,03,13,21,45,3.20
2009,03,13,21,46,1.60
2009,03,13,21,47,1.60
2009,03,13,21,48,4.80
2009,03,13,21,49,3.20
2009,03,13,21,50,1.60
2009,03,13,21,51,0.00
2009,03,13,21,52,0.00
2009,03,13,21,53,0.00
2009,03,13,21,54,1.60
2009,03,13,21,55,1.60
2009,03,13,21,56,8.10
2009,03,13,21,57,1.60
2009,03,13,21,58,3.20
2009,03,13,21,59,1.60
2009,03,13,22,00,3.20
2009,03,13,22,01,1.60
2009,03,13,22,02,9.60
2009,03,13,22,03,6.40
2009,03,13,22,04,9.60
2009,03,13,22,05,1.60
2009,03,13,22,06,1.60
2009,03,13,22,07,3.20
2009,03,13,22,08,1.60
2009,03,13,22,09,1.60
2009,03,13,22,10,1.60
2009,03,13,22,11,0.00
2009,03,13,22,12,1.60
2009,03,13,22,13,3.20
2009,03,13,22,14,1.60
2009,03,13,22,15,1.60
2009,03,13,22,16,0.00
2009,03,13,22,17,1.60
2009,03,13,22,18,1.60
2009,03,13,22,19,3.20
2009,03,13,22,20,3.20
2009,03,13,22,21,3.20
2009,03,13,22,22,0.00
2009,03,13,22,23,1.60
2009,03,13,22,24,0.00
2009,03,13,22,25,0.00
2009,03,13,22,26,1.60
2009,03,13,22,27,1.60
2009,03,13,22,28,3.20
2009,03,13,22,29,0.00
2009,03,13,22,30,0.00
2009,03,13,22,31,0.00
2009,03,13,22,32,0.00
2009,03,13,22,33,1.60
2009,03,13,22,34,1.60
2009,03,13,22,35,4.80
2009,03,13,22,36,3.20
2009,03,13,22,37,0.00
2009,03,13,22,38,1.60
2009,03,13,22,39,0.00
2009,03,13,22,40,0.00
2009,03,13,22,41,1.60
2009,03,13,22,42,4.80
2009,03,13,22,43,4.80
2009,03,13,22,44,3.20
2009,03,13,22,45,1.60
2009,03,13,22,46,1.60
2009,03,13,22,47,3.20
2009,03,13,22,48,6.40
2009,03,13,22,49,6.40
2009,03,13,22,50,3.20
2009,03,13,22,51,3.20
2009,03,13,22,52,6.40
2009,03,13,22,53,8.10
2009,03,13,22,54,3.20
2009,03,13,22,55,0.00
2009,03,13,22,56,1.60
2009,03,13,22,57,1.60
2009,03,13,22,58,6.40
2009,03,13,22,59,1.60
2009,03,13,23,00,1.60
2009,03,13,23,01,8.10
2009,03,13,23,02,6.40
2009,03,13,23,03,1.60
2009,03,13,23,04,6.40
2009,03,13,23,05,11.30
2009,03,13,23,06,6.40
2009,03,13,23,07,6.40
2009,03,13,23,08,1.60
2009,03,13,23,09,1.60
2009,03,13,23,10,1.60
2009,03,13,23,11,1.60
2009,03,13,23,12,6.40
2009,03,13,23,13,0.00
2009,03,13,23,14,1.60
2009,03,13,23,15,1.60
2009,03,13,23,16,8.10
2009,03,13,23,17,8.10
2009,03,13,23,18,8.10
2009,03,13,23,19,8.10
2009,03,13,23,20,12.90
2009,03,13,23,21,6.40
2009,03,13,23,22,4.80
2009,03,13,23,23,9.60
2009,03,13,23,24,6.40
2009,03,13,23,25,9.60
2009,03,13,23,26,4.80
2009,03,13,23,27,4.80
2009,03,13,23,28,11.30
2009,03,13,23,29,9.60
2009,03,13,23,30,3.20
2009,03,13,23,31,4.80
2009,03,13,23,32,6.40
2009,03,13,23,33,6.40
2009,03,13,23,34,11.30
2009,03,13,23,35,6.40
2009,03,13,23,36,4.80
2009,03,13,23,37,8.10
2009,03,13,23,38,4.80
2009,03,13,23,39,3.20
2009,03,13,23,40,1.60
2009,03,13,23,41,1.60
2009,03,13,23,42,9.60
2009,03,13,23,43,9.60
2009,03,13,23,44,4.80
2009,03,13,23,45,8.10
2009,03,13,23,46,6.40
2009,03,13,23,47,4.80
2009,03,13,23,48,1.60
2009,03,13,23,49,1.60
2009,03,13,23,50,3.20
2009,03,13,23,51,1.60
2009,03,13,23,52,1.60
2009,03,13,23,53,3.20
2009,03,13,23,54,0.00
2009,03,13,23,55,1.60
2009,03,13,23,56,3.20
2009,03,13,23,57,6.40
2009,03,13,23,58,6.40
2009,03,13,23,59,11.30
